H1 CPF 2 NER 2022 3 9 9 068 01 glonass129 H2 1106402 9129 37868 2022 3 9 0 0 0 2022 3 12 23 45 0 900 1 1 0 0 0 1 H9 10 0 59647 0.00000 0 20542279.862 -13908818.400 6081483.710 10 0 59647 900.00000 0 19761062.989 -13383385.199 9110562.025 10 0 59647 1800.00000 0 18772163.097 -12540027.500 11963452.434 10 0 59647 2700.00000 0 17633114.366 -11368027.225 14585072.807 10 0 59647 3600.00000 0 16404242.225 -9869325.475 16924829.420 10 0 59647 4500.00000 0 15146081.241 -8058688.932 18937574.412 10 0 59647 5400.00000 0 13916806.059 -5963349.554 20584459.142 10 0 59647 6300.00000 0 12769781.144 -3622131.799 21833668.845 10 0 59647 7200.00000 0 11751329.918 -1084102.343 22661025.981 10 0 59647 8100.00000 0 10898814.723 1593203.713 23050451.959 10 0 59647 9000.00000 0 10239106.358 4345909.129 22994279.091 10 0 59647 9900.00000 0 9787506.251 7106187.929 22493406.916 10 0 59647 10800.00000 0 9547165.993 9804829.727 21557299.410 10 0 59647 11700.00000 0 9509028.979 12373871.462 20203822.016 10 0 59647 12600.00000 0 9652297.671 14749189.684 18458919.982 10 0 59647 13500.00000 0 9945408.500 16872947.511 16356142.157 10 0 59647 14400.00000 0 10347475.361 18695795.550 13936017.085 10 0 59647 15300.00000 0 10810142.992 20178735.201 11245291.201 10 0 59647 16200.00000 0 11279773.831 21294566.091 8336041.711 10 0 59647 17100.00000 0 11699877.357 22028855.896 5264679.585 10 0 59647 18000.00000 0 12013679.791 22380390.289 2090860.899 10 0 59647 18900.00000 0 12166725.144 22361082.407 -1123672.894 10 0 59647 19800.00000 0 12109396.381 21995343.984 -4316303.045 10 0 59647 20700.00000 0 11799247.968 21318943.337 -7424765.528 10 0 59647 21600.00000 0 11203048.460 20377397.653 -10388381.651 10 0 59647 22500.00000 0 10298443.721 19223967.324 -13149261.459 10 0 59647 23400.00000 0 9075167.371 17917337.593 -15653454.388 10 0 59647 24300.00000 0 7535744.426 16519086.611 -17852022.683 10 0 59647 25200.00000 0 5695655.952 15091048.393 -19702014.743 10 0 59647 26100.00000 0 3582955.938 13692683.812 -21167317.754 10 0 59647 27000.00000 0 1237355.294 12378572.312 -22219371.830 10 0 59647 27900.00000 0 -1291189.101 11196131.567 -22837731.059 10 0 59647 28800.00000 0 -3944320.970 10183662.191 -23010460.282 10 0 59647 29700.00000 0 -6657488.969 9368800.197 -22734360.189 10 0 59647 30600.00000 0 -9362415.780 8767441.961 -22015017.037 10 0 59647 31500.00000 0 -11989727.815 8383185.868 -20866677.040 10 0 59647 32400.00000 0 -14471635.038 8207312.415 -19311949.197 10 0 59647 33300.00000 0 -16744548.670 8219301.327 -17381343.703 10 0 59647 34200.00000 0 -18751527.554 8387861.441 -15112656.505 10 0 59647 35100.00000 0 -20444451.778 8672427.258 -12550213.432 10 0 59647 36000.00000 0 -21785834.107 9025056.620 -9743990.019 10 0 59647 36900.00000 0 -22750195.353 9392647.256 -6748625.428 10 0 59647 37800.00000 0 -23324948.542 9719376.998 -3622350.745 10 0 59647 38700.00000 0 -23510757.589 9949263.533 -425853.153 10 0 59647 39600.00000 0 -23321358.150 10028735.202 2778901.339 10 0 59647 40500.00000 0 -22782850.870 9909104.482 5929863.768 10 0 59647 41400.00000 0 -21932498.908 9548840.430 8966093.845 10 0 59647 42300.00000 0 -20817081.875 8915545.352 11828924.893 10 0 59647 43200.00000 0 -19490876.242 7987553.573 14463080.795 10 0 59647 44100.00000 0 -18013347.042 6755086.150 16817724.823 10 0 59647 45000.00000 0 -16446647.042 5220913.809 18847421.788 10 0 59647 45900.00000 0 -14853026.786 3400500.540 20512996.850 10 0 59647 46800.00000 0 -13292262.062 1321621.396 21782276.257 10 0 59647 47700.00000 0 -11819204.235 -976530.683 22630697.358 10 0 59647 48600.00000 0 -10481553.624 -3444713.668 23041777.411 10 0 59647 49500.00000 0 -9317946.907 -6025426.451 23007432.993 10 0 59647 50400.00000 0 -8356436.927 -8655048.460 22528143.991 10 0 59647 51300.00000 0 -7613427.392 -11266243.189 21612958.606 10 0 59647 52200.00000 0 -7093106.744 -13790528.870 20279338.174 10 0 59647 53100.00000 0 -6787405.314 -16160912.132 18552843.160 10 0 59647 54000.00000 0 -6676478.586 -18314477.373 16466664.355 10 0 59647 54900.00000 0 -6729697.768 -20194825.443 14061005.972 10 0 59647 55800.00000 0 -6907107.758 -21754260.546 11382330.313 10 0 59647 56700.00000 0 -7161292.739 -22955633.765 8482476.443 10 0 59647 57600.00000 0 -7439572.069 -23773765.102 5417668.161 10 0 59647 58500.00000 0 -7686434.467 -24196382.780 2247429.364 10 0 59647 59400.00000 0 -7846107.602 -24224538.509 -966572.708 10 0 59647 60300.00000 0 -7865153.481 -23872479.253 -4161733.757 10 0 59647 61200.00000 0 -7694978.166 -23166979.158 -7275743.858 10 0 59647 62100.00000 0 -7294147.178 -22146158.512 -10247818.740 10 0 59647 63000.00000 0 -6630405.752 -20857838.865 -13019905.117 10 0 59647 63900.00000 0 -5682315.430 -19357503.737 -15537834.468 10 0 59647 64800.00000 0 -4440434.769 -17705951.622 -17752400.750 10 0 59647 65700.00000 0 -2907991.579 -15966741.484 -19620339.098 10 0 59647 66600.00000 0 -1101016.132 -14203540.024 -21105184.750 10 0 59647 67500.00000 0 952071.846 -12477484.127 -22177994.296 10 0 59647 68400.00000 0 3211405.993 -10844671.056 -22817914.472 10 0 59647 69300.00000 0 5627106.537 -9353883.116 -23012587.166 10 0 59647 70200.00000 0 8141143.558 -8044643.023 -22758383.049 10 0 59647 71100.00000 0 10689551.605 -6945681.529 -22060459.913 10 0 59647 72000.00000 0 13204902.023 -6073880.817 -20932645.630 10 0 59647 72900.00000 0 15618928.805 -5433736.434 -19397149.241 10 0 59647 73800.00000 0 17865197.529 -5017358.120 -17484107.234 10 0 59647 74700.00000 0 19881705.529 -4805006.857 -15230975.349 10 0 59647 75600.00000 0 21613304.858 -4766142.610 -12681779.230 10 0 59647 76500.00000 0 23013847.556 -4860935.699 -9886239.923 10 0 59647 77400.00000 0 24047964.814 -5042175.468 -6898792.541 10 0 59647 78300.00000 0 24692407.499 -5257493.467 -3777518.255 10 0 59647 79200.00000 0 24936894.196 -5451805.634 -583011.116 10 0 59647 80100.00000 0 24784433.692 -5569869.401 2622797.714 10 0 59647 81000.00000 0 24251110.918 -5558847.417 5777835.432 10 0 59647 81900.00000 0 23365347.551 -5370769.947 8821079.960 10 0 59647 82800.00000 0 22166670.112 -4964792.877 11693726.706 10 0 59647 83700.00000 0 20704038.371 -4309157.220 14340308.352 10 0 59647 84600.00000 0 19033804.504 -3382768.729 16709747.500 10 0 59647 85500.00000 0 17217388.134 -2176332.259 18756323.494 10 0 59648 0.00000 0 15318763.595 -692993.912 20440536.537 10 0 59648 900.00000 0 13401861.636 1051536.795 21729855.125 10 0 59648 1800.00000 0 11527994.557 3029388.510 22599331.789 10 0 59648 2700.00000 0 9753406.420 5201440.764 23032079.675 10 0 59648 3600.00000 0 8127050.755 7518710.026 23019599.225 10 0 59648 4500.00000 0 6688685.424 9924154.811 22561949.852 10 0 59648 5400.00000 0 5467362.748 12354827.687 21667762.753 10 0 59648 6300.00000 0 4480377.001 14744287.841 20354093.540 10 0 59648 7200.00000 0 3732713.078 17025176.702 18646115.936 10 0 59648 8100.00000 0 3217019.853 19131851.925 16576660.409 10 0 59648 9000.00000 0 2914110.343 21002971.788 14185604.332 10 0 59648 9900.00000 0 2793969.083 22583923.081 11519123.164 10 0 59648 10800.00000 0 2817225.825 23828991.120 8628814.970 10 0 59648 11700.00000 0 2937034.782 24703180.291 5570713.407 10 0 59648 12600.00000 0 3101281.059 25183607.271 2404207.178 10 0 59648 13500.00000 0 3255021.319 25260406.433 -809113.705 10 0 59648 14400.00000 0 3343054.961 24937107.199 -4006662.321 10 0 59648 15300.00000 0 3312515.731 24230465.267 -7126085.622 10 0 59648 16200.00000 0 3115372.026 23169753.054 -10106496.289 10 0 59648 17100.00000 0 2710727.429 21795537.988 -12889679.936 10 0 59648 18000.00000 0 2066821.206 20157999.562 -15421251.999 10 0 59648 18900.00000 0 1162641.127 18314856.231 -17651739.715 10 0 59648 19800.00000 0 -10922.433 16328990.193 -19537566.197 10 0 59648 20700.00000 0 -1450432.216 14265871.364 -21041915.666 10 0 59648 21600.00000 0 -3139798.714 12190890.383 -22135461.823 10 0 59648 22500.00000 0 -5050719.379 10166714.246 -22796944.399 10 0 59648 23400.00000 0 -7143644.446 8250776.966 -23013582.373 10 0 59648 24300.00000 0 -9369228.777 6493011.311 -22781316.094 10 0 59648 25200.00000 0 -11670208.304 4933916.922 -22104874.221 10 0 59648 26100.00000 0 -13983621.515 3603045.261 -20997665.194 10 0 59648 27000.00000 0 -16243282.004 2517963.523 -19481496.621 10 0 59648 27900.00000 0 -18382397.724 1683738.894 -17586129.422 10 0 59648 28800.00000 0 -20336226.628 1092962.174 -15348676.950 10 0 59648 29700.00000 0 -22044657.378 726306.741 -12812862.257 10 0 59648 30600.00000 0 -23454607.409 553596.145 -10028149.353 10 0 59648 31500.00000 0 -24522138.725 535332.370 -7048766.689 10 0 59648 32400.00000 0 -25214204.233 624617.574 -3932642.917 10 0 59648 33300.00000 0 -25509953.239 769386.054 -740276.385 10 0 59648 34200.00000 0 -25401543.520 914850.690 2466439.097 10 0 59648 35100.00000 0 -24894428.172 1006059.712 5625409.342 10 0 59648 36000.00000 0 -24007107.349 990455.754 8675532.865 10 0 59648 36900.00000 0 -22770357.153 820329.632 11557869.451 10 0 59648 37800.00000 0 -21225969.258 455066.333 14216762.755 10 0 59648 38700.00000 0 -19425054.710 -136910.294 16600896.712 10 0 59648 39600.00000 0 -17425982.736 -976574.775 18664266.973 10 0 59648 40500.00000 0 -15292039.848 -2073183.951 20367050.551 10 0 59648 41400.00000 0 -13088905.376 -3423654.040 21676358.731 10 0 59648 42300.00000 0 -10882046.682 -5012457.107 22566860.362 10 0 59648 43200.00000 0 -8734140.135 -6812042.248 23021264.890 10 0 59648 44100.00000 0 -6702622.741 -8783765.647 23030656.667 10 0 59648 45000.00000 0 -4837474.066 -10879293.036 22594674.332 10 0 59648 45900.00000 0 -3179318.802 -13042418.958 21721531.463 10 0 59648 46800.00000 0 -1757927.626 -15211230.160 20427877.041 10 0 59648 47700.00000 0 -591178.175 -17320525.931 18738496.870 10 0 59648 48600.00000 0 315480.579 -19304397.270 16685859.673 10 0 59648 49500.00000 0 969037.549 -21098859.373 14309514.323 10 0 59648 50400.00000 0 1388400.941 -22644428.816 11655347.554 10 0 59648 51300.00000 0 1603372.327 -23888538.083 8774714.360 10 0 59648 52200.00000 0 1653155.268 -24787685.853 5723456.034 10 0 59648 53100.00000 0 1584460.286 -25309231.490 2560823.741 10 0 59648 54000.00000 0 1449285.667 -25432756.452 -651672.162 10 0 59648 54900.00000 0 1302468.018 -25150932.988 -3851464.626 10 0 59648 55800.00000 0 1199107.079 -24469861.113 -6976160.005 10 0 59648 56700.00000 0 1191975.419 -23408857.400 -9964770.509 10 0 59648 57600.00000 0 1329024.970 -21999702.662 -12758923.227 10 0 59648 58500.00000 0 1651098.635 -20285379.025 -15304020.084 10 0 59648 59400.00000 0 2189946.690 -18318349.125 -17550324.039 10 0 59648 60300.00000 0 2966634.771 -16158450.030 -19453948.433 10 0 59648 61200.00000 0 3990413.171 -13870491.355 -20977728.461 10 0 59648 62100.00000 0 5258097.298 -11521659.709 -22091956.581 10 0 59648 63000.00000 0 6753986.826 -9178839.793 -22774966.763 10 0 59648 63900.00000 0 8450327.722 -6905965.906 -23013555.892 10 0 59648 64800.00000 0 10308297.846 -4761515.778 -22803234.375 10 0 59648 65700.00000 0 12279474.335 -2796252.125 -22148301.693 10 0 59648 66600.00000 0 14307720.275 -1051306.267 -21061746.420 10 0 59648 67500.00000 0 16331410.532 443316.993 -19564973.899 10 0 59648 68400.00000 0 18285902.283 1669752.439 -17687368.273 10 0 59648 69300.00000 0 20106145.743 2622765.384 -15465698.905 10 0 59648 70200.00000 0 21729325.040 3309702.901 -12943384.256 10 0 59648 71100.00000 0 23097418.370 3749910.677 -10169628.895 10 0 59648 72000.00000 0 24159570.403 3973643.245 -7198451.824 10 0 59648 72900.00000 0 24874178.350 4020516.643 -4087626.069 10 0 59648 73800.00000 0 25210605.538 3937571.379 -897550.925 10 0 59648 74700.00000 0 25150452.364 3777029.446 2309920.629 10 0 59648 75600.00000 0 24688333.228 3593841.433 5472676.496 10 0 59648 76500.00000 0 23832128.865 3443127.841 8529539.142 10 0 59648 77400.00000 0 22602705.221 3377622.490 11421435.864 10 0 59648 78300.00000 0 21033112.044 3445225.129 14092524.138 10 0 59648 79200.00000 0 19167295.466 3686765.330 16491251.722 10 0 59648 80100.00000 0 17058378.534 4134070.492 18571332.698 10 0 59648 81000.00000 0 14766580.800 4808418.023 20292622.484 10 0 59648 81900.00000 0 12356862.379 5719435.833 21621876.796 10 0 59648 82800.00000 0 9896388.652 6864496.893 22533381.567 10 0 59648 83700.00000 0 7451918.759 8228633.608 23009443.058 10 0 59648 84600.00000 0 5087223.794 9784976.711 23040729.607 10 0 59648 85500.00000 0 2860639.571 11495702.176 22626458.694 10 0 59649 0.00000 0 822853.509 13313448.922 21774425.503 10 0 59649 900.00000 0 -984985.231 15183152.009 20500870.889 10 0 59649 1800.00000 0 -2532752.089 17044215.315 18830191.009 10 0 59649 2700.00000 0 -3802372.246 18832939.083 16794490.641 10 0 59649 3600.00000 0 -4788338.757 20485100.892 14432987.620 10 0 59649 4500.00000 0 -5497702.427 21938584.730 11791277.164 10 0 59649 5400.00000 0 -5949532.568 23135948.779 8920468.201 10 0 59649 6300.00000 0 -6173870.077 24026824.134 5876206.552 10 0 59649 7200.00000 0 -6210215.697 24570042.721 2717602.669 10 0 59649 8100.00000 0 -6105616.493 24735403.176 -493915.911 10 0 59649 9000.00000 0 -5912431.110 24504998.021 -3695805.112 10 0 59649 9900.00000 0 -5685868.754 23874043.609 -6825633.659 10 0 59649 10800.00000 0 -5481407.259 22851175.250 -9822316.026 10 0 59649 11700.00000 0 -5352201.388 21458192.752 -12627323.253 10 0 59649 12600.00000 0 -5346593.470 19729265.323 -15185845.895 10 0 59649 13500.00000 0 -5505834.436 17709628.187 -17447884.418 10 0 59649 14400.00000 0 -5862114.391 15453825.358 -19369243.825 10 0 59649 15300.00000 0 -6436988.558 13023572.758 -20912411.365 10 0 59649 16200.00000 0 -7240267.191 10485332.260 -22047299.000 10 0 59649 17100.00000 0 -8269417.922 7907699.532 -22751835.353 10 0 59649 18000.00000 0 -9509506.636 5358716.478 -23012395.289 10 0 59649 18900.00000 0 -10933679.625 2903221.857 -22824058.994 10 0 59649 19800.00000 0 -12504166.437 600351.542 -22190696.108 10 0 59649 20700.00000 0 -14173760.373 -1498706.844 -21124874.260 10 0 59649 21600.00000 0 -15887713.320 -3352611.741 -19647595.053 10 0 59649 22500.00000 0 -17585964.071 -4931339.944 -17787863.987 10 0 59649 23400.00000 0 -19205605.291 -6217173.815 -15582104.249 10 0 59649 24300.00000 0 -20683484.604 -7205164.853 -13073427.243 10 0 59649 25200.00000 0 -21958829.966 -7903057.366 -10310775.464 10 0 59649 26100.00000 0 -22975788.925 -8330678.765 -7347955.732 10 0 59649 27000.00000 0 -23685775.527 -8518825.492 -4242582.666 10 0 59649 27900.00000 0 -24049527.186 -8507694.492 -1054953.733 10 0 59649 28800.00000 0 -24038786.454 -8344928.831 2153121.663 10 0 59649 29700.00000 0 -23637538.689 -8083361.720 5319516.212 10 0 59649 30600.00000 0 -22842755.395 -7778555.204 8382978.967 10 0 59649 31500.00000 0 -21664613.732 -7486237.639 11284307.271 10 0 59649 32400.00000 0 -20126184.321 -7259747.626 13967474.797 10 0 59649 33300.00000 0 -18262601.273 -7147591.196 16380695.301 10 0 59649 34200.00000 0 -16119749.410 -7191213.759 18477403.189 10 0 59649 35100.00000 0 -13752523.000 -7423079.148 20217133.832 10 0 59649 36000.00000 0 -11222727.370 -7865135.200 21566288.538 10 0 59649 36900.00000 0 -8596708.954 -8527729.378 22498771.054 10 0 59649 37800.00000 0 -5942809.989 -9409019.616 22996484.761 10 0 59649 38700.00000 0 -3328750.862 -10494905.545 23049681.871 10 0 59649 39600.00000 0 -819046.179 -11759484.133 22657158.213 10 0 59649 40500.00000 0 1527440.777 -13166012.645 21826289.568 10 0 59649 41400.00000 0 3659705.833 -14668341.139 20572907.861 10 0 59649 42300.00000 0 5536483.689 -16212757.350 18921018.094 10 0 59649 43200.00000 0 7127722.398 -17740169.659 16902359.476 10 0 59649 44100.00000 0 8415591.336 -19188539.310 14555816.939 10 0 59649 45000.00000 0 9394980.058 -20495462.002 11926692.083 10 0 59649 45900.00000 0 10073466.307 -21600791.796 9065845.463 10 0 59649 46800.00000 0 10470753.315 -22449197.538 6028724.921 10 0 59649 47700.00000 0 10617598.794 -22992543.647 2874297.562 10 0 59649 48600.00000 0 10554279.726 -23191993.631 -336094.624 10 0 59649 49500.00000 0 10328657.180 -23019745.485 -3539933.270 10 0 59649 50400.00000 0 9993922.902 -22460323.157 -6674752.171 10 0 59649 51300.00000 0 9606123.766 -21511366.809 -9679370.703 10 0 59649 52200.00000 0 9221570.238 -20183885.786 -12495106.362 10 0 59649 53100.00000 0 8894240.555 -18501961.368 -15066940.699 10 0 59649 54000.00000 0 8673292.880 -16501910.063 -17344613.855 10 0 59649 54900.00000 0 8600793.271 -14230941.622 -19283624.417 10 0 59649 55800.00000 0 8709758.008 -11745367.951 -20846113.315 10 0 59649 56700.00000 0 9022595.153 -9108438.443 -22001613.290 10 0 59649 57600.00000 0 9550012.817 -6387893.311 -22727648.508 10 0 59649 58500.00000 0 10290441.187 -3653338.548 -23010172.304 10 0 59649 59400.00000 0 11229993.043 -973553.404 -22843834.729 10 0 59649 60300.00000 0 12342964.128 1586156.226 -22232075.288 10 0 59649 61200.00000 0 13592851.458 3966447.449 -21187040.034 10 0 59649 62100.00000 0 14933845.460 6116169.326 -19729325.859 10 0 59649 63000.00000 0 16312731.748 7994238.967 -17887558.347 10 0 59649 63900.00000 0 17671120.977 9571087.950 -15697812.913 10 0 59649 64800.00000 0 18947911.687 10829620.990 -13202892.007 10 0 59649 65700.00000 0 20081881.527 11765649.602 -10451473.819 10 0 59649 66600.00000 0 21014297.229 12387785.796 -7497150.454 10 0 59649 67500.00000 0 21691433.497 12716803.670 -4397375.313 10 0 59649 68400.00000 0 22066895.282 12784498.996 -1212341.021 10 0 59649 69300.00000 0 22103646.690 12632097.581 1996189.739 10 0 59649 70200.00000 0 21775662.509 12308281.779 5166077.609 10 0 59649 71100.00000 0 21069134.433 11866919.844 8236001.320 10 0 59649 72000.00000 0 19983182.856 11364594.568 11146631.198 10 0 59649 72900.00000 0 18530045.695 10858035.356 13841759.821 10 0 59649 73800.00000 0 16734737.217 10401561.184 16269369.393 10 0 59649 74700.00000 0 14634191.542 10044640.844 18382616.791 10 0 59649 75600.00000 0 12275926.268 9829671.558 20140719.185 10 0 59649 76500.00000 0 9716280.882 9790067.743 21509724.984 10 0 59649 77400.00000 0 7018301.644 9948738.759 22463156.910 10 0 59649 78300.00000 0 4249358.573 10317018.618 22982516.240 10 0 59649 79200.00000 0 1478590.810 10894092.222 23057639.414 10 0 59649 80100.00000 0 -1225716.425 11666942.620 22686900.503 10 0 59649 81000.00000 0 -3798717.232 12610822.761 21877255.367 10 0 59649 81900.00000 0 -6181448.049 13690233.876 20644125.718 10 0 59649 82800.00000 0 -8323028.681 14860371.921 19011123.829 10 0 59649 83700.00000 0 -10182531.185 16068984.107 17009621.247 10 0 59649 84600.00000 0 -11730439.409 17258560.293 14678167.497 10 0 59649 85500.00000 0 -12949638.063 18368769.444 12061767.758 10 0 59650 0.00000 0 -13835889.243 19339040.367 9211031.459 10 0 59650 900.00000 0 -14397775.722 20111179.432 6181204.811 10 0 59650 1800.00000 0 -14656110.890 20631913.606 3031108.642 10 0 59650 2700.00000 0 -14642840.556 20855252.307 -178003.765 10 0 59650 3600.00000 0 -14399480.692 20744565.166 -3383642.838 10 0 59650 4500.00000 0 -13975157.212 20274286.029 -6523310.411 10 0 59650 5400.00000 0 -13424330.775 19431168.287 -9535733.547 10 0 59650 6300.00000 0 -12804303.811 18215035.582 -12362078.757 10 0 59650 7200.00000 0 -12172616.783 16638993.505 -14947120.852 10 0 59650 8100.00000 0 -11584445.933 14729091.120 -17240341.584 10 0 59650 9000.00000 0 -11090114.888 12523444.896 -19196934.703 10 0 59650 9900.00000 0 -10732827.701 10070861.082 -20778696.024 10 0 59650 10800.00000 0 -10546721.214 7429014.142 -21954779.901 10 0 59650 11700.00000 0 -10555320.694 4662258.016 -22702306.518 10 0 59650 12600.00000 0 -10770464.980 1839162.790 -23006807.792 10 0 59650 13500.00000 0 -11191746.868 -970119.242 -22862503.384 10 0 59650 14400.00000 0 -11806492.081 -3696547.104 -22272402.043 10 0 59650 15300.00000 0 -12590276.782 -6274831.035 -21248227.235 10 0 59650 16200.00000 0 -13507960.490 -8645908.441 -19810169.759 10 0 59650 17100.00000 0 -14515189.216 -10759153.020 -17986473.541 10 0 59650 18000.00000 0 -15560303.710 -12574225.905 -15812864.177 10 0 59650 18900.00000 0 -16586570.757 -14062493.409 -13331832.856 10 0 59650 19800.00000 0 -17534642.064 -15207954.555 -10591790.980 10 0 59650 20700.00000 0 -18345136.110 -16007642.483 -7646113.328 10 0 59650 21600.00000 0 -18961233.618 -16471486.171 -4552089.428 10 0 59650 22500.00000 0 -19331177.298 -16621641.536 -1369804.372 10 0 59650 23400.00000 0 -19410571.061 -16491323.039 1839028.562 10 0 59650 24300.00000 0 -19164382.837 -16123187.548 5012260.648 10 0 59650 25200.00000 0 -18568567.950 -15567340.435 8088502.939 10 0 59650 26100.00000 0 -17611246.180 -14879049.030 11008301.327 10 0 59650 27000.00000 0 -16293384.325 -14116260.085 13715269.782 10 0 59650 27900.00000 0 -14628956.626 -13337025.345 16157161.265 10 0 59650 28800.00000 0 -12644576.842 -12596942.456 18286857.205 10 0 59650 29700.00000 0 -10378617.214 -11946717.263 20063258.335 10 0 59650 30600.00000 0 -7879850.208 -11429948.102 21452061.567 10 0 59650 31500.00000 0 -5205668.146 -11081223.352 22426409.599 10 0 59650 32400.00000 0 -2419952.546 -10924610.535 22967402.178 10 0 59650 33300.00000 0 409320.991 -10972599.346 23064460.134 10 0 59650 34200.00000 0 3212645.804 -11225542.624 22715535.544 10 0 59650 35100.00000 0 5921611.770 -11671619.120 21927163.757 10 0 59650 36000.00000 0 8471491.258 -12287320.883 20714355.350 10 0 59650 36900.00000 0 10803678.273 -13038446.623 19100328.647 10 0 59650 37800.00000 0 12867881.193 -13881561.674 17116086.009 10 0 59650 38700.00000 0 14623978.764 -14765865.686 14799839.757 10 0 59650 39600.00000 0 16043462.086 -15635391.810 12196296.541 10 0 59650 40500.00000 0 17110401.875 -16431446.712 9355811.735 10 0 59650 41400.00000 0 17821899.449 -17095189.781 6333428.273 10 0 59650 42300.00000 0 18188001.064 -17570243.076 3187817.296 10 0 59650 43200.00000 0 18231077.796 -17805221.238 -19859.683 10 0 59650 44100.00000 0 17984695.805 -17756072.965 -3227145.026 10 0 59650 45000.00000 0 17492023.762 -17388132.883 -6371511.702 10 0 59650 45900.00000 0 16803844.468 -16677794.258 -9391597.436 10 0 59650 46800.00000 0 15976255.110 -15613728.858 -12228420.524 10 0 59650 47700.00000 0 15068154.483 -14197599.464 -14826551.559 10 0 59650 48600.00000 0 14138625.077 -12444232.277 -17135216.133 10 0 59650 49500.00000 0 13244322.748 -10381239.818 -19109305.062 10 0 59650 50400.00000 0 12436986.435 -8048108.762 -20710270.605 10 0 59650 51300.00000 0 11761175.165 -5494790.288 -21906889.915 10 0 59650 52200.00000 0 11252329.567 -2779851.994 -22675879.980 10 0 59650 53100.00000 0 10935240.814 31730.648 -23002351.680 10 0 59650 54000.00000 0 10822992.041 2871050.106 -22880094.280 10 0 59650 54900.00000 0 10916416.615 5667905.471 -22311685.379 10 0 59650 55800.00000 0 11204095.167 8353492.924 -21308425.119 10 0 59650 56700.00000 0 11662890.072 10863035.227 -19890097.147 10 0 59650 57600.00000 0 12258992.932 13138240.545 -18084562.370 10 0 59650 58500.00000 0 12949438.869 15129488.548 -15927194.909 10 0 59650 59400.00000 0 13684021.679 16797653.852 -13460172.746 10 0 59650 60300.00000 0 14407527.218 18115492.599 -10731638.267 10 0 59650 61200.00000 0 15062189.263 19068536.634 -7794746.419 10 0 59650 62100.00000 0 15590263.224 19655460.812 -4706620.094 10 0 59650 63000.00000 0 15936608.621 19887911.154 -1527233.898 10 0 59650 63900.00000 0 16051171.482 19789804.077 1681751.371 10 0 59650 64800.00000 0 15891262.568 19396128.956 4858180.730 10 0 59650 65700.00000 0 15423536.401 18751306.556 7940600.600 10 0 59650 66600.00000 0 14625588.972 17907173.942 10869435.354 10 0 59650 67500.00000 0 13487108.179 16920681.347 13588123.066 10 0 59650 68400.00000 0 12010529.700 15851397.823 16044189.918 10 0 59650 69300.00000 0 10211171.466 14758929.638 18190244.082 10 0 59650 70200.00000 0 8116841.176 13700358.485 19984871.755 10 0 59650 71100.00000 0 5766932.611 12727805.126 21393419.945 10 0 59650 72000.00000 0 3211047.175 11886218.691 22388652.571 10 0 59650 72900.00000 0 507195.998 11211482.352 22951268.728 10 0 59650 73800.00000 0 -2280345.240 10728913.174 23070274.097 10 0 59650 74700.00000 0 -5083442.541 10452217.988 22743198.762 10 0 59650 75600.00000 0 -7832674.140 10382948.687 21976157.055 10 0 59650 76500.00000 0 -10459961.696 10510480.246 20783747.381 10 0 59650 77400.00000 0 -12901155.402 10812513.516 19188792.559 10 0 59650 78300.00000 0 -15098467.681 11256083.446 17221923.692 10 0 59650 79200.00000 0 -17002655.509 11799032.458 14921013.388 10 0 59650 80100.00000 0 -18574860.856 12391889.155 12330466.912 10 0 59650 81000.00000 0 -19788032.131 12980075.177 9500382.735 10 0 59650 81900.00000 0 -20627866.240 13506348.588 6485596.766 10 0 59650 82800.00000 0 -21093230.266 13913381.341 3344627.423 10 0 59650 83700.00000 0 -21196043.446 14146361.740 138541.203 10 0 59650 84600.00000 0 -20960622.837 14155510.771 -3070239.337 10 0 59650 85500.00000 0 -20422518.893 13898403.959 -6219161.322 99